Total_Precipitation_Accumulation
1.78 1.76 1.69 1.65 1.63 1.74 1.89 2.01 2.07 2.37 2.49 2.18 1.81 1.69 1.66 1.72 1.66 1.67 1.62 1.57 1.49 1.59 1.93 2.16 2.03 1.81 1.53 1.32 1.18 1.05 0.92 0.81 0.75 0.65 0.67 0.75 0.75 0.70 0.62 0.56 0.50 0.43 0.38
1.91 1.99 1.89 1.85 1.73 1.72 1.87 2.03 2.19 2.61 2.61 2.44 2.01 1.84 1.76 1.72 1.58 1.52 1.61 1.81 1.64 1.52 1.62 1.87 2.08 2.07 1.94 1.70 1.42 1.22 1.07 0.99 0.86 0.66 0.56 0.62 0.66 0.65 0.64 0.63 0.57 0.47 0.39
1.88 1.88 1.72 1.66 1.70 1.83 1.96 1.99 2.18 2.46 2.16 2.13 1.91 1.84 1.66 1.49 1.33 1.29 1.46 1.65 1.54 1.50 1.60 1.71 1.87 1.95 2.04 2.07 1.91 1.69 1.38 1.19 1.02 0.79 0.63 0.59 0.62 0.59 0.56 0.59 0.59 0.51 0.41
1.78 1.90 1.71 1.59 1.90 2.00 2.06 2.20 2.30 2.30 2.19 2.15 1.94 1.71 1.53 1.43 1.18 1.09 1.12 1.19 1.33 1.20 1.45 1.65 1.69 1.73 1.93 2.17 2.33 2.34 2.00 1.62 1.33 1.10 0.87 0.75 0.73 0.68 0.56 0.53 0.55 0.47 0.35
1.84 2.07 1.98 2.03 2.22 2.26 2.23 2.14 2.36 2.33 2.20 2.16 1.96 1.67 1.37 1.23 1.07 0.95 0.88 0.83 0.94 1.02 1.10 1.26 1.40 1.48 1.82 2.32 2.58 2.69 2.59 2.19 1.70 1.44 1.31 1.14 1.06 0.88 0.66 0.56 0.55 0.51 0.40
1.95 2.23 2.05 2.02 2.17 2.25 2.22 2.18 2.13 2.15 1.96 1.95 1.85 1.55 1.23 0.95 0.88 0.77 0.65 0.64 0.68 0.67 0.80 0.97 1.20 1.10 1.42 1.91 2.22 2.53 2.78 2.62 2.11 1.80 1.69 1.57 1.47 1.23 0.85 0.65 0.61 0.58 0.53
1.85 2.11 1.99 2.05 2.06 2.01 2.02 2.07 2.06 1.90 1.59 1.79 1.82 1.41 1.02 0.81 0.77 0.57 0.53 0.54 0.53 0.55 0.69 0.89 1.08 1.08 1.05 1.18 1.48 1.82 2.26 2.47 2.28 1.98 1.86 1.76 1.79 1.65 1.17 0.88 0.77 0.65 0.65
1.89 1.91 1.95 1.93 1.94 1.96 1.87 1.83 1.89 1.71 1.42 1.56 1.65 1.57 1.06 0.81 0.66 0.51 0.56 0.62 0.65 0.70 0.73 0.80 0.94 1.06 1.08 1.29 1.19 1.17 1.55 2.08 2.39 2.34 2.09 1.76 1.63 1.57 1.37 1.23 1.06 0.89 0.86
2.02 1.99 1.91 1.79 1.65 1.58 1.52 1.56 1.63 1.60 1.43 1.40 1.58 1.75 1.38 1.00 0.87 0.67 0.65 0.67 0.76 0.85 0.82 0.84 0.90 1.04 1.13 1.35 1.46 1.32 1.21 1.45 2.00 2.52 2.52 2.06 1.62 1.43 1.39 1.37 1.34 1.19 1.08
1.82 1.62 1.47 1.46 1.42 1.37 1.29 1.20 1.29 1.33 1.25 1.20 1.31 1.44 1.51 1.48 1.37 0.90 0.64 0.61 0.72 0.82 0.89 0.83 0.78 0.87 1.04 1.22 1.43 1.47 1.17 1.06 1.32 2.00 2.40 2.29 1.92 1.54 1.38 1.41 1.66 1.62 1.31
1.43 1.20 1.11 1.12 1.11 1.09 1.05 1.00 1.00 0.99 1.01 1.02 1.14 1.29 1.38 1.44 1.43 1.30 0.92 0.85 0.86 0.79 0.81 0.81 0.84 0.85 0.89 1.10 1.35 1.29 1.28 1.17 1.12 1.26 1.59 1.86 1.94 1.78 1.65 1.80 2.12 2.24 1.98
1.02 0.85 0.77 0.82 0.88 0.94 0.92 0.88 0.88 0.86 0.91 1.02 1.04 1.13 1.27 1.25 1.25 1.34 1.13 1.01 0.96 0.84 0.83 0.86 0.87 0.94 0.93 1.03 1.06 1.25 1.24 1.04 0.95 0.95 1.06 1.28 1.49 1.58 1.63 1.84 2.25 2.59 2.67
0.78 0.72 0.68 0.72 0.77 0.84 0.79 0.75 0.74 0.82 0.94 1.03 1.00 1.05 1.17 1.20 1.23 1.34 1.29 1.19 1.11 1.05 1.07 1.05 0.88 0.79 0.72 0.83 0.91 0.96 0.88 0.78 0.72 0.70 0.74 0.83 0.96 1.17 1.40 1.63 1.97 2.32 2.57
0.77 0.77 0.70 0.68 0.67 0.69 0.67 0.72 0.71 0.76 0.88 0.96 0.91 1.04 1.14 1.20 1.34 1.47 1.49 1.46 1.32 1.20 1.17 1.12 0.95 0.81 0.77 0.80 0.78 0.76 0.71 0.64 0.53 0.51 0.53 0.55 0.63 0.77 0.99 1.18 1.43 1.71 1.94
0.71 0.78 0.74 0.71 0.70 0.72 0.74 0.81 0.85 0.93 1.07 1.12 1.16 1.26 1.28 1.24 1.29 1.37 1.43 1.47 1.51 1.35 1.18 1.10 1.00 0.87 0.86 0.90 0.82 0.75 0.80 0.64 0.46 0.41 0.40 0.40 0.47 0.58 0.64 0.71 0.86 1.06 1.26
0.62 0.73 0.75 0.73 0.72 0.70 0.74 0.84 1.01 1.17 1.28 1.31 1.33 1.40 1.44 1.38 1.38 1.44 1.43 1.49 1.57 1.48 1.25 1.07 1.01 0.93 0.93 0.83 0.83 0.78 0.73 0.63 0.51 0.43 0.38 0.35 0.36 0.40 0.41 0.44 0.53 0.65 0.81
0.57 0.61 0.63 0.65 0.67 0.67 0.71 0.78 0.89 1.08 1.20 1.22 1.23 1.28 1.29 1.28 1.27 1.25 1.32 1.44 1.56 1.55 1.33 1.13 1.16 1.18 1.14 1.03 0.96 0.88 0.75 0.67 0.55 0.47 0.40 0.37 0.33 0.33 0.34 0.36 0.41 0.46 0.55
0.54 0.56 0.55 0.54 0.53 0.56 0.64 0.72 0.82 0.92 1.01 1.03 1.02 1.04 1.00 0.99 1.02 1.01 1.08 1.16 1.26 1.43 1.40 1.28 1.35 1.39 1.37 1.27 1.21 1.12 0.93 0.72 0.61 0.54 0.46 0.43 0.39 0.36 0.33 0.35 0.38 0.44 0.50
0.48 0.48 0.48 0.49 0.53 0.65 0.74 0.79 0.81 0.83 0.84 0.87 0.95 1.01 0.94 0.89 0.88 0.91 0.94 0.92 0.97 1.14 1.26 1.30 1.35 1.45 1.45 1.44 1.31 1.16 1.09 0.96 0.75 0.64 0.56 0.50 0.45 0.41 0.38 0.36 0.38 0.43 0.48
0.41 0.44 0.47 0.52 0.59 0.66 0.74 0.79 0.80 0.77 0.72 0.68 0.73 0.79 0.80 0.77 0.76 0.82 0.85 0.86 0.90 1.02 1.16 1.25 1.33 1.49 1.52 1.45 1.40 1.25 1.23 1.13 1.01 0.84 0.73 0.61 0.59 0.54 0.48 0.43 0.39 0.39 0.48
0.40 0.45 0.50 0.54 0.57 0.59 0.58 0.55 0.56 0.56 0.54 0.51 0.48 0.51 0.57 0.62 0.64 0.66 0.68 0.81 0.89 0.94 0.99 1.06 1.12 1.31 1.54 1.59 1.40 1.30 1.36 1.35 1.22 1.04 0.93 0.74 0.63 0.58 0.54 0.49 0.45 0.41 0.44
0.45 0.50 0.54 0.58 0.58 0.47 0.52 0.45 0.37 0.37 0.42 0.45 0.48 0.49 0.48 0.48 0.50 0.50 0.50 0.57 0.70 0.80 0.84 0.91 0.99 1.15 1.37 1.55 1.60 1.55 1.48 1.39 1.36 1.24 1.14 1.06 0.89 0.79 0.70 0.60 0.49 0.46 0.43
0.54 0.55 0.54 0.53 0.53 0.56 0.55 0.45 0.32 0.30 0.34 0.37 0.42 0.44 0.38 0.36 0.42 0.43 0.45 0.44 0.45 0.53 0.65 0.79 0.87 0.93 1.09 1.31 1.52 1.50 1.56 1.58 1.57 1.56 1.54 1.50 1.26 1.06 0.89 0.75 0.60 0.46 0.43
0.70 0.68 0.64 0.60 0.63 0.60 0.55 0.42 0.34 0.30 0.33 0.36 0.39 0.41 0.41 0.37 0.36 0.43 0.49 0.47 0.43 0.42 0.46 0.55 0.66 0.82 1.03 1.26 1.52 1.52 1.52 1.60 1.67 1.70 1.72 1.73 1.55 1.37 1.16 0.99 0.81 0.61 0.49
0.84 0.76 0.70 0.71 0.70 0.69 0.64 0.49 0.42 0.38 0.42 0.43 0.45 0.43 0.43 0.40 0.40 0.38 0.44 0.49 0.51 0.50 0.47 0.50 0.54 0.72 0.95 1.08 1.30 1.42 1.40 1.41 1.34 1.29 1.41 1.58 1.61 1.56 1.44 1.21 0.98 0.78 0.61
1.04 1.01 0.93 0.91 0.93 0.99 1.00 0.79 0.68 0.62 0.63 0.61 0.66 0.61 0.51 0.45 0.44 0.43 0.45 0.51 0.51 0.52 0.59 0.56 0.54 0.57 0.69 0.87 1.01 1.15 1.25 1.29 1.18 1.07 0.92 1.04 1.22 1.42 1.54 1.42 1.20 1.00 0.85